Location: Moscow
(55.7500°N, 37.5830°E)
Time: 09:15:50
(UTC+03:00)

Transit 4A - Pass Details

Date: 05 December 2021
Orbit: 863 x 981 km, 66.8° (Epoch: 23 January)

Event Time Altitude Azimuth Distance (km) Brightness Sun altitude
Rises 19:48:03 0° 205° (SSW) 3,465 11.1 -30.6°
Reaches altitude 10° 19:50:32 10° 202° (SSW) 2,542 10.3 -31.0°
Enters shadow 19:52:52 25° 195° (SSW) 1,725 9.3 -31.3°
